1279065631399,16.8758
1279065691399,16.8971
1279065751399,16.8981
1279065811399,16.8917
1279065871399,16.8815
1279065931399,16.8750
1279065991399,16.8824
1279066051399,16.8417
1279066111399,16.7994
1279066171399,16.8388
1279066231399,16.8592
1279066291399,16.7929
1279066351399,16.8226
1279066411399,16.8260
1279066471399,16.8129
1279066531399,16.8510
1279066591399,16.8045
1279066651399,16.8866
1279066711399,16.8399
1279066771399,16.8413
1279066831399,16.8690
1279066891399,16.7953
1279066951399,16.8554
1279067011399,16.7885
1279067071399,16.8093
1279067131399,16.7686
1279067191399,16.8298
1279067251399,16.8385
1279067311399,16.8422
1279067371399,16.8001
1279067431399,16.7933
1279067491399,16.8427
1279067551399,16.8657
1279067611399,16.7608
1279067671399,16.8148
1279067731399,16.8228
1279067791399,16.7800
1279067851399,16.7915
1279067911399,16.8203
1279067971399,16.8103
1279068031399,16.8319
1279068091399,16.8251
1279068151399,16.8235
1279068211399,16.8128
1279068271399,16.8409
1279068331399,16.8904
1279068391399,16.8848
1279068451399,16.8645
1279068511399,16.8164
1279068571399,16.8404
1279068631399,16.8926
1279068691399,16.8296
1279068751399,16.8007
1279068811399,16.8160
1279068871399,16.8165
1279068931399,16.8495
1279068991399,16.8309
1279069051399,16.8117
1279069111399,16.8353
1279069171399,16.8037
1279069231408,16.7480
1279069291408,16.7821
1279069351408,16.8298
1279069411408,16.7990
1279069471408,16.8307
1279069531408,16.8801
1279069591408,16.8497
1279069651408,16.9107
1279069711408,16.8540
1279069771408,16.8112
1279069831408,16.8516
1279069891408,16.8683
1279069951408,16.8270
1279070011408,16.9123
1279070071408,16.7959
1279070131408,16.7914
1279070191408,16.7797
1279070251408,16.8497
1279070311408,16.8484
1279070371408,16.8688
1279070431408,16.8704
1279070491408,16.8683
1279070551408,16.8491
1279070611408,16.8496
1279070671408,16.8609
1279070731408,16.8239
1279070791408,16.8551
1279070851408,16.9189
1279070911408,16.8386
1279070971408,16.8483
1279071031408,16.8341
1279071091408,16.8071
1279071151408,16.8440
1279071211408,16.8269
1279071271408,16.8333
1279071331408,16.7902
1279071391408,16.8660
1279071451408,16.8619
1279071511408,16.8461
1279071571408,16.8567
1279071631408,16.8346
1279071691408,16.9069
1279071751408,16.9162
1279071811408,16.8856
1279071871408,16.8117
1279071931408,16.7872
1279071991408,16.8138
1279072051408,16.7970
1279072111408,16.8648
1279072171408,16.7850
1279072231408,16.7629
1279072291408,16.8742
1279072351408,16.8353
1279072411408,16.7973
1279072471408,16.8208
1279072531408,16.8012
1279072591408,16.7945
1279072651408,16.8216
1279072711408,16.8233
1279072771408,16.8778
1279072831417,16.8819
1279072891417,16.8305
1279072951417,16.8720
1279073011417,16.8369
1279073071417,16.8148
1279073131417,16.8203
1279073191417,16.8362
1279073251417,16.8538
1279073311417,16.7898
1279073371417,16.7688
1279073431417,16.8269
1279073491417,16.8196
1279073551417,16.8670
1279073611417,16.8710
1279073671417,16.8062
1279073731417,16.8849
1279073791417,16.8462
1279073851417,16.8268
1279073911417,16.8806
1279073971417,16.7951
1279074031417,16.9003
1279074091417,16.8303
1279074151417,16.8857
1279074211417,16.8280
1279074271417,16.8620
1279074331417,16.8442
1279074391417,16.8735
1279074451417,16.8609
1279074511417,16.8500
1279074571417,16.7925
1279074631417,16.9052
1279074691417,16.8327
1279074751417,16.8801
1279074811417,16.8975
1279074871417,16.8464
1279074931417,16.8956
1279074991417,16.8759
1279075051417,16.9025
1279075111417,16.8695
1279075171417,16.8589
1279075231417,16.8785
1279075291417,16.8538
1279075351417,16.8746
1279075411417,16.8999
1279075471417,16.8098
1279075531417,16.8961
1279075591417,16.8834
1279075651417,16.8404
1279075711417,16.8553
1279075771417,16.8707
1279075831417,16.7929
1279075891417,16.7929
1279075951417,16.8781
1279076011417,16.8513
1279076071417,16.8302
1279076131417,16.8611
1279076191417,16.8438
1279076251417,16.8614
1279076311417,16.8801
1279076371417,16.8869
1279076431426,16.8973
1279076491426,16.8386
1279076551426,16.8209
1279076611426,16.8939
1279076671426,16.8716
1279076731426,16.8954
1279076791426,16.8608
1279076851426,16.8027
1279076911426,16.8182
1279076971426,16.8361
1279077031426,16.8519
1279077091426,16.8206
1279077151426,16.8896
1279077211426,16.8118
1279077271426,16.8900
1279077331426,16.9155
1279077391426,16.8399
1279077451426,16.8897
1279077511426,16.8691
1279077571426,16.8636
1279077631426,16.8480
1279077691426,16.8313
1279077751426,16.8709
1279077811426,16.8258
1279077871426,16.8960
1279077931426,16.8960
1279077991426,16.8909
1279078051426,16.9052
1279078111426,16.8796
1279078171426,16.8993
1279078231426,16.9072
1279078291426,16.9152
1279078351426,16.9361
1279078411426,16.9207
1279078471426,16.9195
1279078531426,16.9195
1279078591426,16.9175
1279078651426,16.9108
1279078711426,16.8820
1279078771426,16.8852
1279078831426,16.8904
1279078891426,16.8497
1279078951426,16.9064
1279079011426,16.8453
1279079071426,16.8580
1279079131426,16.9258
1279079191426,16.8736
1279079251426,16.8914
1279079311426,16.8595
1279079371426,16.8176
1279079431426,16.8434
1279079491426,16.9044
1279079551426,16.8902
1279079611426,16.8381
1279079671426,16.7703
1279079731426,16.8547
1279079791426,16.9454
1279079851426,16.8573
1279079911426,16.9009
1279079971426,16.8888
1279080031435,16.8668
1279080091435,16.8970
1279080151435,16.8680
1279080211435,16.8764
1279080271435,16.8883
1279080331435,16.8339
1279080391435,16.8710
1279080451435,16.8216
1279080511435,16.9413
1279080571435,16.8849
1279080631435,16.8473
1279080691435,16.8809
1279080751435,16.9420
1279080811435,16.8576
1279080871435,16.8752
1279080931435,16.9143
1279080991435,16.8729
1279081051435,16.9226
1279081111435,16.9093
1279081171435,16.9126
1279081231435,16.8425
1279081291435,16.8650
1279081351435,16.9159
1279081411435,16.9385
1279081471435,17.0006
1279081531435,16.9034
1279081591435,16.9730
1279081651435,16.9181
1279081711435,16.9144
1279081771435,16.9252
1279081831435,16.8887
1279081891435,16.9206
1279081951435,16.9227
1279082011435,16.9504
1279082071435,16.9108
1279082131435,16.8891
1279082191435,16.8528
1279082251435,16.9251
1279082311435,16.9122
1279082371435,16.8804
1279082431435,16.8981
1279082491435,16.8894
1279082551435,16.9236
1279082611435,16.9030
1279082671435,16.8555
1279082731435,16.8985
1279082791435,16.8988
1279082851435,16.9306
1279082911435,16.9105
1279082971435,16.9037
1279083031435,16.8760
1279083091435,16.8337
1279083151435,16.8353
1279083211435,16.9271
1279083271435,16.8521
1279083331435,16.9347
1279083391435,16.9276
1279083451435,16.8563
1279083511435,16.9577
1279083571435,16.9353
1279083631444,16.8066
1279084231444,16.8127
1279084291444,16.8837
1279084351444,16.8803
1279084411444,16.8213
1279084471444,16.9453
1279084531444,16.8748
1279084591444,16.8731
1279084651444,16.8684
1279084711444,16.8225
1279084771444,16.8724
1279084831444,16.7927
1279084891444,16.8263
1279084951444,16.8344
1279085011444,16.8277
1279085071444,16.8575
1279085131444,16.8927
1279085191444,16.8770
1279085251444,16.8868
1279085311444,16.8952
1279085371444,16.8195
1279085431444,16.8803
1279085491444,16.9091
1279085551444,16.8704
1279085611444,16.8638
1279085671444,16.8904
1279085731444,16.9198
1279085791444,16.8764
1279085851444,16.8721
1279085911444,16.8811
1279085971444,16.8756
1279086031444,16.8961
1279086091444,16.8765
1279086151444,16.8624
1279086211444,16.9299
1279086271444,16.9064
1279086331444,16.8930
1279086391444,16.8445
1279086451444,16.8360
1279086511444,16.8342
1279086571444,16.8069
1279086631444,16.8028
1279086691444,16.8615
1279086751444,16.8508
1279086811444,16.8835
1279086871444,16.8493
1279086931444,16.8226
1279086991444,16.8416
1279087051444,16.8249
1279087111444,16.8168
1279087171444,16.9095
1279087231452,16.7799
1279087291452,16.8130
1279087351452,16.8516
1279087411452,16.8424
1279087471452,16.8430
1279087531452,16.8352
1279087591452,16.8404
1279087651452,16.8638
1279087711452,16.8412
1279087771452,16.8323
1279087831452,16.8032
1279087891452,16.8292
1279087951452,16.8013
1279088011452,16.7896
1279088071452,16.8712
1279088131452,16.8938
1279088191452,16.8896
1279088251452,16.8331
1279088311452,16.8126
1279088371452,16.8685
1279088431452,16.8347
1279088491452,16.8762
1279088551452,16.8220
1279088611452,16.7838
1279088671452,16.8185
1279088731452,16.8247
1279088791452,16.8883
1279088851452,16.8671
1279088911452,16.8186
1279088971452,16.7922
1279089031452,16.8565
1279089091452,16.8300
1279089151452,16.7943
1279089211452,16.8394
1279089271452,16.8112
1279089331452,16.7730
1279089391452,16.8034
1279089451452,16.7427
1279089511452,16.7937
1279089571452,16.8193
1279089631452,16.8854
1279089691452,16.8307
1279089751452,16.8213
1279089811452,16.8180
1279089871452,16.8138
1279089931452,16.8536
1279089991452,16.8903
1279090051452,16.8950
1279090111452,16.8540
1279090171452,16.8576
1279090231452,16.8229
1279090291452,16.8955
1279090351452,16.8724
1279090411452,16.8389
1279090471452,16.8569
1279090531452,16.7903
1279090591452,16.7721
1279090651452,16.8293
1279090711452,16.8624
1279090771452,16.8437
1279090831461,16.8419
1279090891461,16.8513
1279090951461,16.8315
1279091011461,16.7788
1279091071461,16.7654
1279091131461,16.7793
1279091191461,16.8350
1279091251461,16.8593
1279091311461,16.7791
1279091371461,16.8401
1279091431461,16.8466
1279091491461,16.7650
1279091551461,16.8004
1279091611461,16.8296
1279091671461,16.8253
1279091731461,16.7876
1279091791461,16.8268
1279091851461,16.7766
1279091911461,16.6826
1279091971461,16.7379
1279092031461,16.7554
1279092091461,16.7696
1279092151461,16.7679
1279092211461,16.7075
1279092271461,16.8051
1279092331461,16.8635
1279092391461,16.8670
1279092451461,16.8244
1279092511461,16.8575
1279092571461,16.8625
1279092631461,16.9215
1279092691461,16.9536
1279092751461,16.9635
1279092811461,16.9365
1279092871461,16.9018
1279092931461,16.9437
1279092991461,16.8781
1279093051461,16.8575
1279093111461,16.7762
1279093171461,16.8541
1279093231461,16.9179
1279093291461,16.8296
1279093351461,16.8461
1279093411461,16.8732
1279093471461,16.8829
1279093531461,16.8918
1279093591461,16.8423
1279093651461,16.8157
1279093711461,16.9109
1279093771461,16.8499
1279093831461,16.9014
1279093891461,16.8599
1279093951461,16.8830
1279094011461,16.8518
1279094071461,16.7897
1279094131461,16.8639
1279094191461,16.8481
1279094251461,16.8063
1279094311461,16.7985
1279094371461,16.8431
1279094431469,16.8525
1279094491469,16.8155
1279094551469,16.8698
1279094611469,16.8225
1279094671469,16.8238
1279094731469,16.7706
1279094791469,16.8213
1279094851469,16.8115
1279094911469,16.8534
1279094971469,16.8268
1279095031469,16.8177
1279095091469,16.8630
1279095151469,16.8488
1279095211469,16.8823
1279095271469,16.8761
1279095331469,16.8387
1279095391469,16.8572
1279095451469,16.7996
1279095511469,16.7967
1279095571469,16.8321
1279095631469,16.7903
1279095691469,16.7844
1279095751469,16.8365
1279095811469,16.8773
1279095871469,16.8895
1279095931469,16.8137
1279095991469,16.8183
1279096051469,16.8146
1279096111469,16.8671
1279096171469,16.8335
1279096231469,16.7722
1279096291469,16.8111
1279096351469,16.8543
1279096411469,16.7923
1279096471469,16.8392
1279096531469,16.8042
1279096591469,16.7770
1279096651469,16.8266
1279096711469,16.7827
1279096771469,16.8280
1279096831469,16.8062
1279096891469,16.7633
1279096951469,16.8172
1279097011469,16.8618
1279097071469,16.8887
1279097131469,16.7860
1279097191469,16.7848
1279097251469,16.7859
1279097311469,16.8185
1279097371469,16.8793
1279097431469,16.8009
1279097491469,16.7898
1279097551469,16.8099
1279097611469,16.8244
1279097671469,16.8097
1279097731469,16.7795
1279097791469,16.8209
1279097851469,16.8352
1279097911469,16.7959
1279097971469,16.7973
1279098031478,16.7919
1279098091478,16.7698
1279098151478,16.8689
1279098211478,16.7786
1279098271478,16.7815
1279098331478,16.8676
1279098391478,16.8305
1279098451478,16.8261
1279098511478,16.8110
1279098571478,16.7925
1279098631478,16.7402
1279098691478,16.6936
1279098751478,16.8176
1279098811478,16.8070
1279098871478,16.7757
1279098931478,16.7821
1279098991478,16.7942
1279099051478,16.8134
1279099111478,16.7875
1279099171478,16.7747
1279099231478,16.8392
1279099291478,16.7572
1279099351478,16.8031
1279099411478,16.7893
1279099471478,16.7360
1279099531478,16.7820
1279099591478,16.7659
1279099651478,16.8541
1279099711478,16.7778
1279099771478,16.8527
1279099831478,16.8618
1279099891478,16.8277
1279099951478,16.9106
1279100011478,16.7731
1279100071478,16.8387
1279100131478,16.8420
1279100191478,16.8720
1279100251478,16.8089
1279100311478,16.7979
1279100371478,16.8497
1279100431478,16.8545
1279100491478,16.7890
1279100551478,16.8060
1279100611478,16.8244
1279100671478,16.8519
1279100731478,16.7989
1279100791478,16.8290
1279100851478,16.7887
1279100911478,16.8088
1279100971478,16.8286
1279101031478,16.7795
1279101091478,16.7727
1279101151478,16.7860
1279101211478,16.8383
1279101271478,16.8674
1279101331478,16.8511
1279101391478,16.8142
1279101451478,16.8098
1279101511478,16.8122
1279101571478,16.8451
1279101631486,16.8055
1279101691486,16.7270
1279101751486,16.8057
1279101811486,16.8639
1279101871486,16.8024
1279101931486,16.8506
1279101991486,16.8535
1279102051486,16.8260
1279102111486,16.8176
1279102171486,16.8364
1279102231486,16.8401
1279102291486,16.7476
1279102351486,16.8203
1279102411486,16.8641
1279102471486,16.8948
1279102531486,16.9025
1279102591486,16.8724
1279102651486,16.8341
1279102711486,16.8081
1279102771486,16.7857
1279102831486,16.8412
1279102891486,16.7956
1279102951486,16.7873
1279103011486,16.7431
1279103071486,16.8006
1279103131486,16.8948
1279103191486,16.7939
1279103251486,16.8176
1279103311486,16.8189
1279103371486,16.8158
1279103431486,16.8178
1279103491486,16.8071
1279103551486,16.8582
1279103611486,16.8286
1279103671486,16.7946
1279103731486,16.8558
1279103791486,16.8305
1279103851486,16.8194
1279103911486,16.8546
1279103971486,16.8677
1279104031486,16.8762
1279104091486,16.8080
1279104151486,16.8076
1279104211486,16.9016
1279104271486,16.8707
1279104331486,16.8942
1279104391486,16.8737
1279104451486,16.8495
1279104511486,16.8364
1279104571486,16.8683
1279104631486,16.8716
1279104691486,16.8759
1279104751486,16.8652
1279104811486,16.8424
1279104871486,16.8032
1279104931486,16.8286
1279104991486,16.8421
1279105051486,16.8620
1279105111486,16.8628
1279105171486,16.8461
1279105231495,16.8912
1279105291495,16.8558
1279105351495,16.8928
1279105411495,16.8561
1279105471495,16.8615
1279105531495,16.8607
1279105591495,16.8899
1279105651495,16.8891
1279105711495,16.8226
1279105771495,16.8867
1279105831495,16.8202
1279105891495,16.8822
1279105951495,16.8347
1279106011495,16.8463
1279106071495,16.8080
1279106131495,16.8605
1279106191495,16.8516
1279106251495,16.8479
1279106311495,16.8158
1279106371495,16.8744
1279106431495,16.8208
1279106491495,16.8100
1279106551495,16.8305
1279106611495,16.8025
1279106671495,16.8463
1279106731495,16.8203
1279106791495,16.8207
1279106851495,16.8522
1279106911495,16.8327
1279106971495,16.8802
1279107031495,16.8587
1279107091495,16.8608
1279107151495,16.8517
1279107211495,16.8019
1279107271495,16.8669
1279107331495,16.8850
1279107391495,16.7944
1279107451495,16.8658
1279107511495,16.8356
1279107571495,16.8485
1279107631495,16.8692
1279107691495,16.8528
1279107751495,16.8837
1279107811495,16.8627
1279107871495,16.8851
1279107931495,16.7836
1279107991495,16.8001
1279108051495,16.8446
1279108111495,16.8086
1279108171495,16.9126
1279108231495,16.8533
1279108291495,16.9417
1279108351495,16.9492
1279108411495,16.9033
1279108471495,16.9981
1279108531495,16.9223
1279108591495,16.9818
1279108651495,16.9710
1279108711495,16.8947
1279108771495,16.9056
1279108831503,16.8850
1279108891503,16.9105
1279108951503,16.9217
1279109011503,16.9268
1279109071503,16.9035
1279109131503,16.9669
1279109191503,16.9639
1279109251503,16.8636
1279109311503,16.9672
1279109371503,16.9211
1279109431503,16.9207
1279109491503,16.9606
1279109551503,16.8833
1279109611503,17.0082
1279109671503,17.0349
1279109731503,17.0398
1279109791503,16.9603
1279109851503,17.0441
1279109911503,17.0473
1279109971503,17.1230
1279110031503,17.1243
1279110091503,17.1013
1279110151503,17.2063
1279110211503,17.3055
1279110271503,17.2686
1279110331503,17.3350
1279110391503,17.3009
1279110451503,17.2378
1279110511503,17.2844
1279110571503,17.3116
1279110631503,17.2992
1279110691503,17.2589
1279110751503,17.2724
1279110811503,17.3360
1279110871503,17.2494
1279110931503,17.2045
1279110991503,17.1758
1279111051503,17.1837
1279111111503,17.1604
1279111171503,17.1895
1279111231503,17.1952
1279111291503,17.1602
1279111351503,17.1174
1279111411503,17.1682
1279111471503,17.1024
1279111531503,17.1915
1279111591503,17.0893
1279111651503,17.1627
1279111711503,17.1770
1279111771503,17.1407
1279111831503,17.1611
1279111891503,17.0549
1279111951503,16.9959
1279112011503,17.0404
1279112071503,17.0307
1279112131503,17.0191
1279112191503,17.0059
1279112251503,17.0604
1279112311503,17.0756
1279112371503,17.0445
1279120231499,16.8512
1279120291499,17.0650
1279120351499,16.8568
1279127911517,16.8389
1279127971517,16.8627
1279128031517,16.8866
1279128091517,16.9024
1279128151517,16.9189
1279128211517,16.9139
1279128271517,16.9966
1279136131538,16.7795
1279136191538,16.9012
1279136251538,16.8081
1279143811560,17.1277
1279143871560,17.1829
1279143931560,17.2021
1279143991560,17.1964
1279144051560,17.1249
1279144111560,17.1254
1279144171560,17.1142
1279144231560,17.1795
1279144291560,17.1335
1279144351560,17.1997
1279144411560,17.1255
1279144471560,17.1199
1279144531560,17.1408
1279144591560,17.1412
1279144651560,17.0820
1279144711560,17.0810
1279144771560,17.0812
1279144831570,17.0606
1279144891570,17.1113
1279144951570,17.0399
1279145011570,17.0663
1279145071570,17.0423
1279145131570,16.9959
1279145191570,17.0399
1279145251570,16.9995
1279145311570,17.0423
1279145371570,17.0477
1279145431570,17.0504
1279145491570,16.9710
1279145551570,16.9860
1279145611570,17.0680
1279145671570,17.0640
1279145731570,17.0208
1279145791570,16.9913
1279145851570,17.0020
1279145911570,16.9944
1279145971570,16.9669
1279146031570,17.0481
1279146091570,17.0399
1279146151570,17.0372
1279146211570,16.9648
1279146271570,17.0319
1279146331570,17.0064
1279146391570,17.0268
1279146451570,16.9989
1279146511570,16.9678
1279146571570,17.0286
1279146631570,16.9703
1279146691570,16.9608
1279146751570,16.9305
1279146811570,16.9742
1279146871570,17.0251
1279146931570,17.0216
1279146991570,16.9561
1279147051570,16.9551
1279147111570,16.9664
1279147171570,16.9717
1279147231570,16.9901
1279147291570,17.0400
1279147351570,16.9936
1279147411570,17.0149
1279147471570,16.9195
1279147531570,16.9669
1279147591570,16.9782
1279147651570,16.9979
1279147711570,17.0117
1279147771570,16.9781
1279147831570,16.9500
1279147891570,16.9637
1279147951570,16.9531
1279148011570,17.0026
1279148071570,16.9900
1279148131570,16.9726
1279148191570,16.9665
1279148251570,16.9798
1279148311570,16.9757
1279148371570,17.0058
1279148431581,17.0507
1279148491581,16.9833
1279148551581,16.9773
1279148611581,16.9821
1279148671581,16.9930
1279148731581,16.9890
1279148791581,16.9902
1279148851581,16.9543
1279148911581,16.9671
1279148971581,16.9844
1279149031581,16.9617
1279149091581,16.9793
1279149151581,16.9780
1279149211581,16.9947
1279149271581,17.0423
1279149331581,16.9702
1279149391581,16.9688
1279149451581,16.9521
1279149511581,16.9308
1279149571581,16.8559
1279149631581,16.9249
1279149691581,16.8962
1279149751581,16.9132
1279149811581,16.9105
1279149871581,16.8904
1279149931581,16.8923
1279149991581,16.9599
1279150051581,16.9079
1279150111581,16.9290
1279150171581,16.9045
1279150231581,16.9084
1279150291581,16.9196
1279150351581,16.8300
1279150411581,16.9058
1279150471581,16.8971
1279150531581,16.8932
1279150591581,16.8536
1279150651581,16.9038
1279150711581,16.8122
1279150771581,16.8386
1279150831581,16.8600
1279150891581,16.8666
1279150951581,16.8424
1279151011581,16.8632
1279151071581,16.8395
1279151131581,16.8397
1279151191581,16.8827
1279151251581,16.8407
1279151311581,16.8396
1279151371581,16.8437
1279151431581,16.8487
1279151491581,16.7753
1279151551581,16.7835
1279151611581,16.8565
1279151671581,16.8966
1279151731581,16.8041
1279151791581,16.7694
1279151851581,16.7965
1279151911581,16.8077
1279151971581,16.7658
